Location: ??
(35.5653°N, 139.6194°E)
Time: 15:01:03
(UTC+00:00)

Delta 2 Rocket - Pass Details

Date: 28 February 2020
Orbit: 416 x 808 km, 35.6° (Epoch: 09 April)

Event Time Altitude Azimuth Distance (km) Brightness Sun altitude
Exits shadow 19:15:52 24° 154° (SSE) 1,066 4.9 -24.5°
Drops below altitude 10° 19:18:50 10° 101° (E) 1,618 6.7 -23.9°
Sets 19:21:10 0° 86° (E) 2,443 8.1 -23.5°
